AFL1230 UUEE-UWUU

Flight info

Callsign AFL1230
Flight time 1h 38m
Altitude 39000
Route KOGOM3J KOGOM L94 UNORO T788 NAMUD L994 DILUP DILUP3L
Aircraft A320/M-SDE3FGHIRWY/LB1

Departure

Time 2026-05-04 14:37
Airport Sheremetyevo International Airport (UUEE)

Arrival

Time 2026-05-04 16:16
Airport Ufa International Airport (UWUU)
Time Latitude Longitude Altitude Speed Heading
2026-05-04 14:13 55.97841 37.41916 639 ft 0 kts 279°
2026-05-04 14:30 55.97835 37.41980 642 ft 3 kts 279°
2026-05-04 14:31 55.97832 37.42015 643 ft 3 kts 265°
2026-05-04 14:31 55.97857 37.42059 644 ft 2 kts 165°
2026-05-04 14:32 55.97858 37.42059 644 ft 0 kts 165°
2026-05-04 14:33 55.97829 37.42072 641 ft 8 kts 166°
2026-05-04 14:33 55.97779 37.42095 639 ft 7 kts 165°
2026-05-04 14:33 55.97738 37.42114 639 ft 6 kts 165°
2026-05-04 14:33 55.97698 37.42147 639 ft 7 kts 136°
2026-05-04 14:34 55.97693 37.42242 643 ft 9 kts 77°
2026-05-04 14:34 55.97709 37.42348 644 ft 8 kts 76°
2026-05-04 14:34 55.97728 37.42474 641 ft 14 kts 75°
2026-05-04 14:34 55.97754 37.42649 643 ft 14 kts 73°
2026-05-04 14:35 55.97739 37.42787 643 ft 11 kts 144°
2026-05-04 14:35 55.97680 37.42821 639 ft 8 kts 165°
2026-05-04 14:35 55.97631 37.42830 640 ft 6 kts 189°
2026-05-04 14:35 55.97603 37.42791 642 ft 4 kts 230°
2026-05-04 14:36 55.97595 37.42763 642 ft 1 kts 249°
2026-05-04 14:36 55.97591 37.42745 640 ft 9 kts 252°
2026-05-04 14:36 55.97507 37.42182 639 ft 82 kts 255°
2026-05-04 14:36 55.97310 37.40861 641 ft 135 kts 255°
2026-05-04 14:37 55.97043 37.39032 893 ft 156 kts 256°
2026-05-04 14:37 55.96778 37.37170 1602 ft 158 kts 258°
2026-05-04 14:37 55.96506 37.35226 2233 ft 161 kts 256°
2026-05-04 14:37 55.96204 37.33270 2735 ft 172 kts 254°
2026-05-04 14:38 55.95843 37.31094 3044 ft 193 kts 253°
2026-05-04 14:38 55.95112 37.28934 3345 ft 221 kts 221°
2026-05-04 14:38 55.93601 37.27904 3776 ft 253 kts 184°
2026-05-04 14:38 55.91867 37.28827 4429 ft 274 kts 147°
2026-05-04 14:39 55.90659 37.31490 5248 ft 286 kts 112°
2026-05-04 14:39 55.90380 37.35016 6100 ft 292 kts 85°
2026-05-04 14:39 55.90688 37.38618 6959 ft 296 kts 75°
2026-05-04 14:40 55.91612 37.45850 8722 ft 303 kts 76°
2026-05-04 14:40 55.91979 37.49578 9590 ft 307 kts 79°
2026-05-04 14:40 55.92259 37.53390 10302 ft 317 kts 82°
2026-05-04 14:40 55.92484 37.57445 10579 ft 341 kts 83°
2026-05-04 14:41 55.92671 37.61762 11070 ft 354 kts 84°
2026-05-04 14:41 55.92834 37.66169 11812 ft 358 kts 85°
2026-05-04 14:41 55.93153 37.75138 13329 ft 366 kts 85°
2026-05-04 14:42 55.93494 37.84293 14696 ft 374 kts 85°
2026-05-04 14:42 55.93673 37.88941 15354 ft 377 kts 85°
2026-05-04 14:42 55.93856 37.93623 15996 ft 381 kts 85°
2026-05-04 14:43 55.94040 37.98360 16645 ft 384 kts 85°
2026-05-04 14:43 55.94221 38.03137 17291 ft 388 kts 85°
2026-05-04 14:43 55.94401 38.07966 17920 ft 392 kts 85°
2026-05-04 14:43 55.94579 38.12845 18487 ft 396 kts 85°
2026-05-04 14:44 55.94758 38.17761 19047 ft 399 kts 85°
2026-05-04 14:44 55.94937 38.22725 19603 ft 402 kts 86°
2026-05-04 14:44 55.95114 38.27726 20171 ft 405 kts 86°
2026-05-04 14:44 55.95291 38.32759 20734 ft 408 kts 86°
2026-05-04 14:45 55.95469 38.37833 21288 ft 411 kts 86°
2026-05-04 14:45 55.95648 38.42945 21851 ft 414 kts 86°
2026-05-04 14:45 55.95826 38.48092 22408 ft 417 kts 86°
2026-05-04 14:45 55.95999 38.53282 22953 ft 420 kts 86°
2026-05-04 14:46 55.96172 38.58506 23485 ft 423 kts 86°
2026-05-04 14:46 55.96344 38.63766 23940 ft 426 kts 86°
2026-05-04 14:46 55.96512 38.68981 24381 ft 428 kts 86°
2026-05-04 14:46 55.96680 38.74292 24826 ft 430 kts 86°
2026-05-04 14:47 55.96844 38.79633 25249 ft 432 kts 86°
2026-05-04 14:47 55.97007 38.84993 25670 ft 434 kts 86°
2026-05-04 14:47 55.97172 38.90387 26075 ft 436 kts 85°
2026-05-04 14:47 55.97337 38.95795 26484 ft 438 kts 85°
2026-05-04 14:48 55.97500 39.01226 26883 ft 440 kts 85°
2026-05-04 14:48 55.97661 39.06699 27277 ft 442 kts 85°
2026-05-04 14:48 55.97819 39.12180 27665 ft 444 kts 85°
2026-05-04 14:48 55.97973 39.17693 28051 ft 445 kts 85°
2026-05-04 14:49 55.98126 39.23233 28415 ft 447 kts 85°
2026-05-04 14:49 55.98279 39.28794 28778 ft 449 kts 85°
2026-05-04 14:49 55.98431 39.34374 29123 ft 451 kts 85°
2026-05-04 14:49 55.98582 39.39986 29454 ft 453 kts 85°
2026-05-04 14:50 55.98729 39.45616 29798 ft 455 kts 85°
2026-05-04 14:50 55.98872 39.51268 30099 ft 457 kts 85°
2026-05-04 14:50 55.99010 39.56944 30375 ft 458 kts 85°
2026-05-04 14:50 55.99298 39.62601 30639 ft 457 kts 77°
2026-05-04 14:51 56.00029 39.68109 30894 ft 455 kts 69°
2026-05-04 14:51 56.01193 39.73338 31153 ft 452 kts 60°
2026-05-04 14:51 56.02664 39.78297 31429 ft 451 kts 58°
2026-05-04 14:51 56.04138 39.83238 31794 ft 450 kts 58°
2026-05-04 14:52 56.05598 39.88179 32163 ft 448 kts 58°
2026-05-04 14:52 56.07042 39.93104 32535 ft 447 kts 58°
2026-05-04 14:52 56.08480 39.98026 32909 ft 445 kts 58°
2026-05-04 14:52 56.09909 40.02929 33269 ft 443 kts 58°
2026-05-04 14:53 56.11333 40.07817 33633 ft 442 kts 58°
2026-05-04 14:53 56.12754 40.12694 33972 ft 441 kts 58°
2026-05-04 14:53 56.14170 40.17564 34250 ft 441 kts 58°
2026-05-04 14:53 56.15584 40.22441 34491 ft 441 kts 58°
2026-05-04 14:54 56.16999 40.27327 34720 ft 442 kts 58°
2026-05-04 14:54 56.18415 40.32225 34927 ft 443 kts 58°
2026-05-04 14:54 56.19830 40.37136 35147 ft 443 kts 59°
2026-05-04 14:54 56.21247 40.42059 35355 ft 444 kts 59°
2026-05-04 14:55 56.22664 40.46986 35559 ft 444 kts 59°
2026-05-04 14:55 56.24076 40.51933 35770 ft 446 kts 61°
2026-05-04 14:55 56.25200 40.57153 35952 ft 451 kts 71°
2026-05-04 14:55 56.25846 40.62690 36144 ft 455 kts 80°
2026-05-04 14:56 56.26000 40.68392 36323 ft 459 kts 90°
2026-05-04 14:56 56.25868 40.72188 36442 ft 460 kts 92°
2026-05-04 14:56 56.25561 40.79796 36688 ft 461 kts 92°
2026-05-04 14:56 56.25329 40.85541 36879 ft 461 kts 92°
2026-05-04 14:57 56.25095 40.91289 37069 ft 461 kts 92°
2026-05-04 14:57 56.24858 40.97032 37267 ft 461 kts 92°
2026-05-04 14:57 56.24615 41.02781 37445 ft 461 kts 92°
2026-05-04 14:57 56.24369 41.08525 37614 ft 461 kts 92°
2026-05-04 14:58 56.24201 41.12416 37729 ft 461 kts 93°
2026-05-04 14:58 56.23952 41.18160 37895 ft 462 kts 93°
2026-05-04 14:58 56.23699 41.23917 38063 ft 462 kts 93°
2026-05-04 14:58 56.23445 41.29670 38238 ft 462 kts 93°
2026-05-04 14:59 56.23186 41.35421 38390 ft 462 kts 93°
2026-05-04 14:59 56.22922 41.41176 38525 ft 462 kts 94°
2026-05-04 14:59 56.22379 41.52686 38788 ft 462 kts 94°
2026-05-04 15:00 56.22108 41.58444 38847 ft 463 kts 94°
2026-05-04 15:00 56.21563 41.69981 38849 ft 464 kts 94°
2026-05-04 15:01 56.20740 41.87200 38856 ft 463 kts 94°
2026-05-04 15:01 56.20159 41.98726 38850 ft 463 kts 94°
2026-05-04 15:02 56.19560 42.10251 38854 ft 463 kts 94°
2026-05-04 15:02 56.18953 42.21777 38853 ft 464 kts 94°
2026-05-04 15:03 56.18329 42.33310 38857 ft 464 kts 94°
2026-05-04 15:03 56.17693 42.44848 38860 ft 464 kts 95°
2026-05-04 15:04 56.17042 42.56385 38855 ft 465 kts 95°
2026-05-04 15:04 56.16384 42.67921 38860 ft 465 kts 95°
2026-05-04 15:05 56.15721 42.79461 38870 ft 465 kts 95°
2026-05-04 15:05 56.15045 42.90994 38868 ft 465 kts 95°
2026-05-04 15:06 56.14355 43.02531 38870 ft 465 kts 95°
2026-05-04 15:07 56.13292 43.19811 38866 ft 465 kts 95°
2026-05-04 15:07 56.13090 43.31374 38864 ft 464 kts 89°
2026-05-04 15:08 56.12994 43.42948 38865 ft 464 kts 90°
2026-05-04 15:08 56.12886 43.54596 38858 ft 464 kts 90°
2026-05-04 15:09 56.12765 43.66169 38853 ft 464 kts 90°
2026-05-04 15:09 56.12637 43.77743 38851 ft 465 kts 90°
2026-05-04 15:10 56.12417 43.95124 38857 ft 465 kts 90°
2026-05-04 15:11 56.12167 44.12513 38865 ft 466 kts 90°
2026-05-04 15:11 56.11999 44.24116 38872 ft 466 kts 90°
2026-05-04 15:12 56.11817 44.35710 38874 ft 466 kts 91°
2026-05-04 15:12 56.11613 44.47314 38875 ft 466 kts 91°
2026-05-04 15:13 56.11399 44.58919 38877 ft 467 kts 91°
2026-05-04 15:13 56.11186 44.70548 38878 ft 467 kts 91°
2026-05-04 15:14 56.10959 44.82174 38877 ft 467 kts 91°
2026-05-04 15:14 56.10718 44.93805 38881 ft 467 kts 91°
2026-05-04 15:15 56.10457 45.05442 38888 ft 468 kts 91°
2026-05-04 15:15 56.10182 45.17094 38880 ft 468 kts 91°
2026-05-04 15:16 56.09761 45.34575 38878 ft 468 kts 91°
2026-05-04 15:17 56.09330 45.52064 38874 ft 469 kts 91°
2026-05-04 15:17 56.08870 45.69576 38876 ft 470 kts 92°
2026-05-04 15:18 56.08544 45.81252 38875 ft 470 kts 92°
2026-05-04 15:19 56.08024 45.98782 38876 ft 470 kts 92°
2026-05-04 15:19 56.07487 46.16326 38877 ft 471 kts 92°
2026-05-04 15:20 56.07121 46.28037 38874 ft 471 kts 92°
2026-05-04 15:20 56.06743 46.39744 38880 ft 471 kts 92°
2026-05-04 15:21 56.06133 46.51333 38879 ft 472 kts 102°
2026-05-04 15:22 56.02879 46.68001 38875 ft 472 kts 111°
2026-05-04 15:22 55.99351 46.84434 38878 ft 472 kts 111°
2026-05-04 15:23 55.96989 46.95384 38877 ft 472 kts 111°
2026-05-04 15:23 55.94620 47.06317 38879 ft 472 kts 111°
2026-05-04 15:24 55.89840 47.28144 38878 ft 472 kts 111°
2026-05-04 15:25 55.87440 47.39038 38880 ft 472 kts 111°
2026-05-04 15:26 55.83814 47.55351 38889 ft 472 kts 112°
2026-05-04 15:26 55.80169 47.71638 38887 ft 472 kts 112°
2026-05-04 15:27 55.76503 47.87888 38895 ft 472 kts 112°
2026-05-04 15:28 55.72824 48.04117 38895 ft 473 kts 112°
2026-05-04 15:29 55.69111 48.20319 38894 ft 473 kts 112°
2026-05-04 15:30 55.60361 48.58024 38901 ft 473 kts 112°
2026-05-04 15:31 55.56585 48.74162 38902 ft 473 kts 112°
2026-05-04 15:32 55.50237 49.00977 38906 ft 473 kts 113°
2026-05-04 15:34 55.43826 49.27687 38912 ft 473 kts 113°
2026-05-04 15:34 55.39962 49.43660 38913 ft 473 kts 113°
2026-05-04 15:35 55.36082 49.59591 38916 ft 472 kts 114°
2026-05-04 15:36 55.32171 49.75451 38921 ft 472 kts 114°
2026-05-04 15:36 55.29981 49.84304 38926 ft 471 kts 114°
2026-05-04 15:37 55.27369 49.94853 38925 ft 471 kts 114°
2026-05-04 15:37 55.24747 50.05384 38926 ft 471 kts 114°
2026-05-04 15:38 55.22114 50.15906 38928 ft 471 kts 114°
2026-05-04 15:38 55.19469 50.26414 38928 ft 472 kts 115°
2026-05-04 15:39 55.16815 50.36912 38929 ft 472 kts 115°
2026-05-04 15:40 55.12808 50.52635 38926 ft 472 kts 115°
2026-05-04 15:40 55.10131 50.63102 38924 ft 472 kts 115°
2026-05-04 15:41 55.07443 50.73552 38925 ft 472 kts 115°
2026-05-04 15:41 55.04778 50.84005 38927 ft 472 kts 111°
2026-05-04 15:42 55.02621 50.94822 38930 ft 472 kts 110°
2026-05-04 15:42 55.00465 51.05642 38927 ft 473 kts 110°
2026-05-04 15:43 54.98289 51.16457 38936 ft 473 kts 110°
2026-05-04 15:43 54.96105 51.27272 38932 ft 474 kts 110°
2026-05-04 15:44 54.93916 51.38092 38932 ft 474 kts 110°
2026-05-04 15:44 54.91718 51.48900 38930 ft 474 kts 110°
2026-05-04 15:45 54.89505 51.59692 38939 ft 474 kts 110°
2026-05-04 15:45 54.87290 51.70470 38935 ft 474 kts 110°
2026-05-04 15:46 54.85050 51.81229 38937 ft 474 kts 111°
2026-05-04 15:46 54.82802 51.91974 38933 ft 474 kts 111°
2026-05-04 15:47 54.80552 52.02698 38932 ft 473 kts 111°
2026-05-04 15:47 54.78296 52.13404 38934 ft 473 kts 111°
2026-05-04 15:48 54.76034 52.24091 38934 ft 473 kts 111°
2026-05-04 15:48 54.74899 52.29439 38747 ft 473 kts 111°
2026-05-04 15:48 54.72625 52.40103 38239 ft 472 kts 111°
2026-05-04 15:49 54.71487 52.45420 37966 ft 472 kts 111°
2026-05-04 15:49 54.70347 52.50741 37699 ft 471 kts 111°
2026-05-04 15:49 54.69203 52.56049 37433 ft 471 kts 111°
2026-05-04 15:49 54.68055 52.61355 37171 ft 471 kts 111°
2026-05-04 15:50 54.66906 52.66657 36914 ft 471 kts 111°
2026-05-04 15:50 54.65755 52.71958 36309 ft 472 kts 111°
2026-05-04 15:50 54.64593 52.77287 35452 ft 475 kts 111°
2026-05-04 15:50 54.63587 52.82696 34931 ft 471 kts 104°
2026-05-04 15:51 54.62757 52.88129 34364 ft 467 kts 104°
2026-05-04 15:51 54.61927 52.93532 33763 ft 465 kts 104°
2026-05-04 15:51 54.61097 52.98896 33172 ft 460 kts 104°
2026-05-04 15:51 54.60274 53.04198 32621 ft 455 kts 104°
2026-05-04 15:52 54.59500 53.09459 31873 ft 452 kts 98°
2026-05-04 15:52 54.59332 53.14845 30721 ft 447 kts 81°
2026-05-04 15:52 54.59919 53.20018 29834 ft 435 kts 74°
2026-05-04 15:52 54.60620 53.25055 28845 ft 431 kts 73°
2026-05-04 15:53 54.61316 53.30039 28397 ft 423 kts 73°
2026-05-04 15:53 54.62002 53.34954 27691 ft 417 kts 73°
2026-05-04 15:53 54.62663 53.39712 27267 ft 397 kts 73°
2026-05-04 15:53 54.63291 53.44258 26832 ft 384 kts 73°
2026-05-04 15:54 54.63911 53.48719 26400 ft 380 kts 73°
2026-05-04 15:54 54.64525 53.53137 25967 ft 377 kts 73°
2026-05-04 15:54 54.65133 53.57523 25539 ft 374 kts 73°
2026-05-04 15:54 54.65734 53.61878 25088 ft 371 kts 73°
2026-05-04 15:55 54.66327 53.66204 24639 ft 369 kts 73°
2026-05-04 15:55 54.66913 53.70504 24187 ft 367 kts 73°
2026-05-04 15:55 54.67494 53.74779 23741 ft 364 kts 73°
2026-05-04 15:55 54.68072 53.79042 23209 ft 364 kts 73°
2026-05-04 15:56 54.68644 53.83285 22732 ft 361 kts 73°
2026-05-04 15:56 54.69201 53.87434 22274 ft 358 kts 73°
2026-05-04 15:56 54.69767 53.91662 21812 ft 355 kts 73°
2026-05-04 15:56 54.70314 53.95752 21368 ft 353 kts 73°
2026-05-04 15:57 54.70862 53.99868 20920 ft 350 kts 73°
2026-05-04 15:57 54.71403 54.03960 20473 ft 348 kts 73°
2026-05-04 15:57 54.71941 54.08027 20030 ft 346 kts 73°
2026-05-04 15:57 54.72477 54.12071 19594 ft 344 kts 73°
2026-05-04 15:58 54.73011 54.16096 19172 ft 342 kts 73°
2026-05-04 15:58 54.73543 54.20104 18735 ft 341 kts 74°
2026-05-04 15:58 54.74070 54.24097 18308 ft 340 kts 74°
2026-05-04 15:58 54.74592 54.28088 17838 ft 339 kts 74°
2026-05-04 15:59 54.75108 54.32054 17418 ft 336 kts 74°
2026-05-04 15:59 54.75619 54.35988 17001 ft 334 kts 74°
2026-05-04 15:59 54.76126 54.39897 16593 ft 331 kts 74°
2026-05-04 15:59 54.76627 54.43779 16179 ft 329 kts 75°
2026-05-04 16:00 54.77121 54.47639 15785 ft 327 kts 75°
2026-05-04 16:00 54.77612 54.51480 15371 ft 326 kts 75°
2026-05-04 16:00 54.78101 54.55299 14988 ft 324 kts 75°
2026-05-04 16:00 54.78591 54.59098 14591 ft 322 kts 75°
2026-05-04 16:01 54.79078 54.62880 14198 ft 321 kts 75°
2026-05-04 16:01 54.79561 54.66646 13806 ft 320 kts 75°
2026-05-04 16:01 54.80041 54.70401 13385 ft 318 kts 75°
2026-05-04 16:01 54.80516 54.74131 12974 ft 316 kts 75°
2026-05-04 16:02 54.80986 54.77834 12581 ft 313 kts 75°
2026-05-04 16:02 54.81451 54.81503 12189 ft 311 kts 75°
2026-05-04 16:02 54.82348 54.88677 11704 ft 297 kts 75°
2026-05-04 16:03 54.82779 54.92148 11099 ft 293 kts 75°
2026-05-04 16:03 54.83201 54.95549 10656 ft 286 kts 75°
2026-05-04 16:03 54.83619 54.98919 10276 ft 285 kts 75°
2026-05-04 16:03 54.84036 55.02279 9905 ft 284 kts 75°
2026-05-04 16:04 54.84451 55.05624 9527 ft 283 kts 75°
2026-05-04 16:04 54.85276 55.12274 8676 ft 281 kts 75°
2026-05-04 16:04 54.85683 55.15586 8271 ft 280 kts 75°
2026-05-04 16:05 54.86082 55.18845 7855 ft 279 kts 76°
2026-05-04 16:05 54.86489 55.22179 7444 ft 279 kts 76°
2026-05-04 16:05 54.87248 55.28469 6770 ft 257 kts 76°
2026-05-04 16:06 54.87612 55.31488 6194 ft 255 kts 76°
2026-05-04 16:06 54.86687 55.39268 5368 ft 254 kts 127°
2026-05-04 16:07 54.85149 55.42370 5204 ft 257 kts 131°
2026-05-04 16:07 54.81619 55.49332 4815 ft 255 kts 131°
2026-05-04 16:08 54.80445 55.51643 4675 ft 255 kts 131°
2026-05-04 16:08 54.76944 55.58535 4078 ft 251 kts 131°
2026-05-04 16:09 54.74631 55.63079 4008 ft 252 kts 131°
2026-05-04 16:09 54.72381 55.67484 4002 ft 225 kts 131°
2026-05-04 16:10 54.70429 55.71303 4005 ft 207 kts 132°
2026-05-04 16:11 54.67006 55.75569 3685 ft 204 kts 152°
2026-05-04 16:11 54.65720 55.76758 2894 ft 215 kts 153°
2026-05-04 16:12 54.62425 55.80832 2246 ft 174 kts 106°
2026-05-04 16:12 54.64155 55.84242 1720 ft 140 kts 334°
2026-05-04 16:13 54.64665 55.81316 1074 ft 146 kts 242°
2026-05-04 16:13 54.62967 55.79724 1014 ft 150 kts 173°
2026-05-04 16:14 54.61148 55.81240 1006 ft 142 kts 151°
2026-05-04 16:14 54.59433 55.82887 863 ft 140 kts 150°
2026-05-04 16:15 54.56916 55.85325 457 ft 131 kts 151°
2026-05-04 16:16 54.56003 55.86202 453 ft 26 kts 150°
2026-05-04 16:16 54.55938 55.86688 450 ft 15 kts 60°
2026-05-04 16:17 54.56033 55.86983 450 ft 13 kts 59°
2026-05-04 16:18 54.56193 55.87470 450 ft 20 kts 60°
2026-05-04 16:18 54.56265 55.87690 450 ft 18 kts 60°
2026-05-04 16:19 54.56428 55.88211 450 ft 10 kts 73°
2026-05-04 16:19 54.56441 55.88265 450 ft 0 kts 64°
2026-05-04 16:20 54.56464 55.88335 450 ft 0 kts 60°